Year,Month,Day,Hour,Minute,Value (Times are PST for temperature in C)
2021,05,04,00,00,9.20
2021,05,04,00,01,9.20
2021,05,04,00,02,9.10
2021,05,04,00,03,9.10
2021,05,04,00,04,9.10
2021,05,04,00,05,9.10
2021,05,04,00,06,9.10
2021,05,04,00,07,9.00
2021,05,04,00,08,9.00
2021,05,04,00,09,9.00
2021,05,04,00,10,8.90
2021,05,04,00,11,8.90
2021,05,04,00,12,8.90
2021,05,04,00,13,8.80
2021,05,04,00,14,8.80
2021,05,04,00,15,8.80
2021,05,04,00,16,8.80
2021,05,04,00,17,8.80
2021,05,04,00,18,8.70
2021,05,04,00,19,8.70
2021,05,04,00,20,8.70
2021,05,04,00,21,8.70
2021,05,04,00,22,8.70
2021,05,04,00,23,8.60
2021,05,04,00,24,8.60
2021,05,04,00,25,8.60
2021,05,04,00,26,8.50
2021,05,04,00,27,8.50
2021,05,04,00,28,8.50
2021,05,04,00,29,8.40
2021,05,04,00,30,8.40
2021,05,04,00,31,8.40
2021,05,04,00,32,8.30
2021,05,04,00,33,8.30
2021,05,04,00,34,8.30
2021,05,04,00,35,8.30
2021,05,04,00,36,8.30
2021,05,04,00,37,8.30
2021,05,04,00,38,8.20
2021,05,04,00,39,8.20
2021,05,04,00,40,8.20
2021,05,04,00,41,8.20
2021,05,04,00,42,8.20
2021,05,04,00,43,8.20
2021,05,04,00,44,8.10
2021,05,04,00,45,8.10
2021,05,04,00,46,8.10
2021,05,04,00,47,8.10
2021,05,04,00,48,8.10
2021,05,04,00,49,8.10
2021,05,04,00,50,8.10
2021,05,04,00,51,8.10
2021,05,04,00,52,8.10
2021,05,04,00,53,8.10
2021,05,04,00,54,8.10
2021,05,04,00,55,8.00
2021,05,04,00,56,8.00
2021,05,04,00,57,8.00
2021,05,04,00,58,7.90
2021,05,04,00,59,7.90
2021,05,04,01,00,7.90
2021,05,04,01,01,7.90
2021,05,04,01,02,7.90
2021,05,04,01,03,7.90
2021,05,04,01,04,7.90
2021,05,04,01,05,7.90
2021,05,04,01,06,7.90
2021,05,04,01,07,7.90
2021,05,04,01,08,7.90
2021,05,04,01,09,7.80
2021,05,04,01,10,7.80
2021,05,04,01,11,7.80
2021,05,04,01,12,7.80
2021,05,04,01,13,7.80
2021,05,04,01,14,7.80
2021,05,04,01,15,7.80
2021,05,04,01,16,7.90
2021,05,04,01,17,7.90
2021,05,04,01,18,7.90
2021,05,04,01,19,7.90
2021,05,04,01,20,7.90
2021,05,04,01,21,7.90
2021,05,04,01,22,7.90
2021,05,04,01,23,7.90
2021,05,04,01,24,7.90
2021,05,04,01,25,7.90
2021,05,04,01,26,7.90
2021,05,04,01,27,7.90
2021,05,04,01,28,7.90
2021,05,04,01,29,7.90
2021,05,04,01,30,7.90
2021,05,04,01,31,8.00
2021,05,04,01,32,8.10
2021,05,04,01,33,8.10
2021,05,04,01,34,8.20
2021,05,04,01,35,8.30
2021,05,04,01,36,8.30
2021,05,04,01,37,8.40
2021,05,04,01,38,8.40
2021,05,04,01,39,8.40
2021,05,04,01,40,8.40
2021,05,04,01,41,8.50
2021,05,04,01,42,8.50
2021,05,04,01,43,8.60
2021,05,04,01,44,8.80
2021,05,04,01,45,8.80
2021,05,04,01,46,8.90
2021,05,04,01,47,8.90
2021,05,04,01,48,8.90
2021,05,04,01,49,8.90
2021,05,04,01,50,8.90
2021,05,04,01,51,8.90
2021,05,04,01,52,8.90
2021,05,04,01,53,8.80
2021,05,04,01,54,8.80
2021,05,04,01,55,8.70
2021,05,04,01,56,8.70
2021,05,04,01,57,8.70
2021,05,04,01,58,8.70
2021,05,04,01,59,8.70
2021,05,04,02,00,8.70
2021,05,04,02,01,8.60
2021,05,04,02,02,8.50
2021,05,04,02,03,8.50
2021,05,04,02,04,8.40
2021,05,04,02,05,8.30
2021,05,04,02,06,8.20
2021,05,04,02,07,8.20
2021,05,04,02,08,8.10
2021,05,04,02,09,8.00
2021,05,04,02,10,7.90
2021,05,04,02,11,7.90
2021,05,04,02,12,7.90
2021,05,04,02,13,7.80
2021,05,04,02,14,7.80
2021,05,04,02,15,7.80
2021,05,04,02,16,7.70
2021,05,04,02,17,7.70
2021,05,04,02,18,7.70
2021,05,04,02,19,7.60
2021,05,04,02,20,7.60
2021,05,04,02,21,7.60
2021,05,04,02,22,7.60
2021,05,04,02,23,7.50
2021,05,04,02,24,7.50
2021,05,04,02,25,7.50
2021,05,04,02,26,7.50
2021,05,04,02,27,7.50
2021,05,04,02,28,7.40
2021,05,04,02,29,7.40
2021,05,04,02,30,7.40
2021,05,04,02,31,7.40
2021,05,04,02,32,7.40
2021,05,04,02,33,7.40
2021,05,04,02,34,7.40
2021,05,04,02,35,7.30
2021,05,04,02,36,7.30
2021,05,04,02,37,7.30
2021,05,04,02,38,7.30
2021,05,04,02,39,7.30
2021,05,04,02,40,7.30
2021,05,04,02,41,7.30
2021,05,04,02,42,7.30
2021,05,04,02,43,7.30
2021,05,04,02,44,7.30
2021,05,04,02,45,7.30
2021,05,04,02,46,7.30
2021,05,04,02,47,7.30
2021,05,04,02,48,7.30
2021,05,04,02,49,7.30
2021,05,04,02,50,7.30
2021,05,04,02,51,7.30
2021,05,04,02,52,7.30
2021,05,04,02,53,7.30
2021,05,04,02,54,7.20
2021,05,04,02,55,7.20
2021,05,04,02,56,7.20
2021,05,04,02,57,7.20
2021,05,04,02,58,7.20
2021,05,04,02,59,7.10
2021,05,04,03,00,7.10
2021,05,04,03,01,7.10
2021,05,04,03,02,7.10
2021,05,04,03,03,7.10
2021,05,04,03,04,7.10
2021,05,04,03,05,7.10
2021,05,04,03,06,7.10
2021,05,04,03,07,7.10
2021,05,04,03,08,7.10
2021,05,04,03,09,7.10
2021,05,04,03,10,7.10
2021,05,04,03,11,7.10
2021,05,04,03,12,7.10
2021,05,04,03,13,7.00
2021,05,04,03,14,7.10
2021,05,04,03,15,7.10
2021,05,04,03,16,7.10
2021,05,04,03,17,7.00
2021,05,04,03,18,7.10
2021,05,04,03,19,7.10
2021,05,04,03,20,7.20
2021,05,04,03,21,7.20
2021,05,04,03,22,7.20
2021,05,04,03,23,7.20
2021,05,04,03,24,7.20
2021,05,04,03,25,7.20
2021,05,04,03,26,7.20
2021,05,04,03,27,7.20
2021,05,04,03,28,7.20
2021,05,04,03,29,7.20
2021,05,04,03,30,7.20
2021,05,04,03,31,7.20
2021,05,04,03,32,7.20
2021,05,04,03,33,7.20
2021,05,04,03,34,7.20
2021,05,04,03,35,7.20
2021,05,04,03,36,7.20
2021,05,04,03,37,7.20
2021,05,04,03,38,7.20
2021,05,04,03,39,7.20
2021,05,04,03,40,7.20
2021,05,04,03,41,7.20
2021,05,04,03,42,7.20
2021,05,04,03,43,7.20
2021,05,04,03,44,7.20
2021,05,04,03,45,7.30
2021,05,04,03,46,7.30
2021,05,04,03,47,7.30
2021,05,04,03,48,7.30
2021,05,04,03,49,7.30
2021,05,04,03,50,7.30
2021,05,04,03,51,7.30
2021,05,04,03,52,7.40
2021,05,04,03,53,7.40
2021,05,04,03,54,7.40
2021,05,04,03,55,7.40
2021,05,04,03,56,7.40
2021,05,04,03,57,7.40
2021,05,04,03,58,7.40
2021,05,04,03,59,7.40
2021,05,04,04,00,7.40
2021,05,04,04,01,7.30
2021,05,04,04,02,7.30
2021,05,04,04,03,7.30
2021,05,04,04,04,7.30
2021,05,04,04,05,7.30
2021,05,04,04,06,7.20
2021,05,04,04,07,7.20
2021,05,04,04,08,7.20
2021,05,04,04,09,7.20
2021,05,04,04,10,7.20
2021,05,04,04,11,7.20
2021,05,04,04,12,7.20
2021,05,04,04,13,7.20
2021,05,04,04,14,7.20
2021,05,04,04,15,7.20
2021,05,04,04,16,7.20
2021,05,04,04,17,7.20
2021,05,04,04,18,7.20
2021,05,04,04,19,7.20
2021,05,04,04,20,7.20
2021,05,04,04,21,7.20
2021,05,04,04,22,7.20
2021,05,04,04,23,7.20
2021,05,04,04,24,7.20
2021,05,04,04,25,7.20
2021,05,04,04,26,7.20
2021,05,04,04,27,7.20
2021,05,04,04,28,7.20
2021,05,04,04,29,7.10
2021,05,04,04,30,7.10
2021,05,04,04,31,7.10
2021,05,04,04,32,7.10
2021,05,04,04,33,7.10
2021,05,04,04,34,7.10
2021,05,04,04,35,7.10
2021,05,04,04,36,7.10
2021,05,04,04,37,7.00
2021,05,04,04,38,7.00
2021,05,04,04,39,7.00
2021,05,04,04,40,7.00
2021,05,04,04,41,6.90
2021,05,04,04,42,7.00
2021,05,04,04,43,7.00
2021,05,04,04,44,6.90
2021,05,04,04,45,6.90
2021,05,04,04,46,6.90
2021,05,04,04,47,6.90
2021,05,04,04,48,6.90
2021,05,04,04,49,6.90
2021,05,04,04,50,6.90
2021,05,04,04,51,6.90
2021,05,04,04,52,6.90
2021,05,04,04,53,6.90
2021,05,04,04,54,7.00
2021,05,04,04,55,7.00
2021,05,04,04,56,7.00
2021,05,04,04,57,7.00
2021,05,04,04,58,6.90
2021,05,04,04,59,6.90
2021,05,04,05,00,6.90
2021,05,04,05,01,6.90
2021,05,04,05,02,6.90
2021,05,04,05,03,6.90
2021,05,04,05,04,6.90
2021,05,04,05,05,6.90
2021,05,04,05,06,6.90
2021,05,04,05,07,6.90
2021,05,04,05,08,6.90
2021,05,04,05,09,6.90
2021,05,04,05,10,6.90
2021,05,04,05,11,6.90
2021,05,04,05,12,6.90
2021,05,04,05,13,7.00
2021,05,04,05,14,7.00
2021,05,04,05,15,7.00
2021,05,04,05,16,7.00
2021,05,04,05,17,7.10
2021,05,04,05,18,7.10
2021,05,04,05,19,7.10
2021,05,04,05,20,7.10
2021,05,04,05,21,7.10
2021,05,04,05,22,7.20
2021,05,04,05,23,7.20
2021,05,04,05,24,7.20
2021,05,04,05,25,7.20
2021,05,04,05,26,7.20
2021,05,04,05,27,7.20
2021,05,04,05,28,7.20
2021,05,04,05,29,7.20
2021,05,04,05,30,7.30
2021,05,04,05,31,7.30
2021,05,04,05,32,7.30
2021,05,04,05,33,7.30
2021,05,04,05,34,7.30
2021,05,04,05,35,7.40
2021,05,04,05,36,7.40
2021,05,04,05,37,7.40
2021,05,04,05,38,7.40
2021,05,04,05,39,7.50
2021,05,04,05,40,7.60
2021,05,04,05,41,7.60
2021,05,04,05,42,7.60
2021,05,04,05,43,7.70
2021,05,04,05,44,7.80
2021,05,04,05,45,7.80
2021,05,04,05,46,7.80
2021,05,04,05,47,7.90
2021,05,04,05,48,7.90
2021,05,04,05,49,7.90
2021,05,04,05,50,7.90
2021,05,04,05,51,8.00
2021,05,04,05,52,8.00
2021,05,04,05,53,8.10
2021,05,04,05,54,8.10
2021,05,04,05,55,8.20
2021,05,04,05,56,8.20
2021,05,04,05,57,8.20
2021,05,04,05,58,8.30
2021,05,04,05,59,8.30
2021,05,04,06,00,8.30
2021,05,04,06,01,8.30
2021,05,04,06,02,8.30
2021,05,04,06,03,8.40
2021,05,04,06,04,8.40
2021,05,04,06,05,8.50
2021,05,04,06,06,8.50
2021,05,04,06,07,8.50
2021,05,04,06,08,8.60
2021,05,04,06,09,8.60
2021,05,04,06,10,8.60
2021,05,04,06,11,8.60
2021,05,04,06,12,8.60
2021,05,04,06,13,8.60
2021,05,04,06,14,8.60
2021,05,04,06,15,8.70
2021,05,04,06,16,8.70
2021,05,04,06,17,8.70
2021,05,04,06,18,8.70
2021,05,04,06,19,8.70
2021,05,04,06,20,8.70
2021,05,04,06,21,8.80
2021,05,04,06,22,8.80
2021,05,04,06,23,8.80
2021,05,04,06,24,8.80
2021,05,04,06,25,8.80
2021,05,04,06,26,8.80
2021,05,04,06,27,8.80
2021,05,04,06,28,8.80
2021,05,04,06,29,8.90
2021,05,04,06,30,8.90
2021,05,04,06,31,8.90
2021,05,04,06,32,8.90
2021,05,04,06,33,8.90
2021,05,04,06,34,8.90
2021,05,04,06,35,8.90
2021,05,04,06,36,8.90
2021,05,04,06,37,8.90
2021,05,04,06,38,8.90
2021,05,04,06,39,8.90
2021,05,04,06,40,8.90
2021,05,04,06,41,8.90
2021,05,04,06,42,9.00
2021,05,04,06,43,9.00
2021,05,04,06,44,9.00
2021,05,04,06,45,9.00
2021,05,04,06,46,9.00
2021,05,04,06,47,9.10
2021,05,04,06,48,9.10
2021,05,04,06,49,9.10
2021,05,04,06,50,9.10
2021,05,04,06,51,9.10
2021,05,04,06,52,9.10
2021,05,04,06,53,9.10
2021,05,04,06,54,9.10
2021,05,04,06,55,9.10
2021,05,04,06,56,9.20
2021,05,04,06,57,9.20
2021,05,04,06,58,9.20
2021,05,04,06,59,9.20
2021,05,04,07,00,9.20
2021,05,04,07,01,9.20
2021,05,04,07,02,9.20
2021,05,04,07,03,9.20
2021,05,04,07,04,9.20
2021,05,04,07,05,9.20
2021,05,04,07,06,9.20
2021,05,04,07,07,9.30
2021,05,04,07,08,9.30
2021,05,04,07,09,9.30
2021,05,04,07,10,9.30
2021,05,04,07,11,9.30
2021,05,04,07,12,9.30
2021,05,04,07,13,9.30
2021,05,04,07,14,9.30
2021,05,04,07,15,9.40
2021,05,04,07,16,9.40
2021,05,04,07,17,9.40
2021,05,04,07,18,9.40
2021,05,04,07,19,9.40
2021,05,04,07,20,9.40
2021,05,04,07,21,9.40
2021,05,04,07,22,9.50
2021,05,04,07,23,9.50
2021,05,04,07,24,9.50
2021,05,04,07,25,9.50
2021,05,04,07,26,9.60
2021,05,04,07,27,9.60
2021,05,04,07,28,9.60
2021,05,04,07,29,9.60
2021,05,04,07,30,9.60
2021,05,04,07,31,9.60
2021,05,04,07,32,9.60
2021,05,04,07,33,9.60
2021,05,04,07,34,9.60
2021,05,04,07,35,9.70
2021,05,04,07,36,9.70
2021,05,04,07,37,9.70
2021,05,04,07,38,9.70
2021,05,04,07,39,9.70
2021,05,04,07,40,9.70
2021,05,04,07,41,9.70
2021,05,04,07,42,9.70
2021,05,04,07,43,9.80
2021,05,04,07,44,9.80
2021,05,04,07,45,9.80
2021,05,04,07,46,9.80
2021,05,04,07,47,9.80
2021,05,04,07,48,9.80
2021,05,04,07,49,9.80
2021,05,04,07,50,9.90
2021,05,04,07,51,9.90
2021,05,04,07,52,9.90
2021,05,04,07,53,9.90
2021,05,04,07,54,9.90
2021,05,04,07,55,9.90
2021,05,04,07,56,9.90
2021,05,04,07,57,9.90
2021,05,04,07,58,10.00
2021,05,04,07,59,10.00
2021,05,04,08,00,10.10
2021,05,04,08,01,10.10
2021,05,04,08,02,10.20
2021,05,04,08,03,10.20
2021,05,04,08,04,10.30
2021,05,04,08,05,10.40
2021,05,04,08,06,10.40
2021,05,04,08,07,10.50
2021,05,04,08,08,10.60
2021,05,04,08,09,10.70
2021,05,04,08,10,10.70
2021,05,04,08,11,10.80
2021,05,04,08,12,10.80
2021,05,04,08,13,10.90
2021,05,04,08,14,11.00
2021,05,04,08,15,11.00
2021,05,04,08,16,11.00
2021,05,04,08,17,11.10
2021,05,04,08,18,11.10
2021,05,04,08,19,11.10
2021,05,04,08,20,11.10
2021,05,04,08,21,11.20
2021,05,04,08,22,11.10
2021,05,04,08,23,11.10
2021,05,04,08,24,11.10
2021,05,04,08,25,11.10
2021,05,04,08,26,11.10
2021,05,04,08,27,11.10
2021,05,04,08,28,11.10
2021,05,04,08,29,11.10
2021,05,04,08,30,11.10
2021,05,04,08,31,11.10
2021,05,04,08,32,11.20
2021,05,04,08,33,11.20
2021,05,04,08,34,11.20
2021,05,04,08,35,11.10
2021,05,04,08,36,11.10
2021,05,04,08,37,11.10
2021,05,04,08,38,11.00
2021,05,04,08,39,11.00
2021,05,04,08,40,11.00
2021,05,04,08,41,11.00
2021,05,04,08,42,11.00
2021,05,04,08,43,11.00
2021,05,04,08,44,11.00
2021,05,04,08,45,11.10
2021,05,04,08,46,11.10
2021,05,04,08,47,11.10
2021,05,04,08,48,11.10
2021,05,04,08,49,11.20
2021,05,04,08,50,11.20
2021,05,04,08,51,11.30
2021,05,04,08,52,11.30
2021,05,04,08,53,11.40
2021,05,04,08,54,11.50
2021,05,04,08,55,11.60
2021,05,04,08,56,11.70
2021,05,04,08,57,11.80
2021,05,04,08,58,11.80
2021,05,04,08,59,11.90
2021,05,04,09,00,12.00
2021,05,04,09,01,12.10
2021,05,04,09,02,12.20
2021,05,04,09,03,12.30
2021,05,04,09,04,12.40
2021,05,04,09,05,12.50
2021,05,04,09,06,12.60
2021,05,04,09,07,12.70
2021,05,04,09,08,12.70
2021,05,04,09,09,12.70
2021,05,04,09,10,12.80
2021,05,04,09,11,12.70
2021,05,04,09,12,12.60
2021,05,04,09,13,12.60
2021,05,04,09,14,12.50
2021,05,04,09,15,12.50
2021,05,04,09,16,12.40
2021,05,04,09,17,12.50
2021,05,04,09,18,12.50
2021,05,04,09,19,12.50
2021,05,04,09,20,12.50
2021,05,04,09,21,12.50
2021,05,04,09,22,12.40
2021,05,04,09,23,12.40
2021,05,04,09,24,12.30
2021,05,04,09,25,12.30
2021,05,04,09,26,12.30
2021,05,04,09,27,12.30
2021,05,04,09,28,12.30
2021,05,04,09,29,12.30
2021,05,04,09,30,12.30
2021,05,04,09,31,12.20
2021,05,04,09,32,12.20
2021,05,04,09,33,12.20
2021,05,04,09,34,12.20
2021,05,04,09,35,12.20
2021,05,04,09,36,12.20
2021,05,04,09,37,12.20
2021,05,04,09,38,12.20
2021,05,04,09,39,12.20
2021,05,04,09,40,12.10
2021,05,04,09,41,12.10
2021,05,04,09,42,12.10
2021,05,04,09,43,12.10
2021,05,04,09,44,12.10
2021,05,04,09,45,12.20
2021,05,04,09,46,12.20
2021,05,04,09,47,12.30
2021,05,04,09,48,12.40
2021,05,04,09,49,12.50
2021,05,04,09,50,12.60
2021,05,04,09,51,12.70
2021,05,04,09,52,12.80
2021,05,04,09,53,13.00
2021,05,04,09,54,13.10
2021,05,04,09,55,13.20
2021,05,04,09,56,13.30
2021,05,04,09,57,13.30
2021,05,04,09,58,13.30
2021,05,04,09,59,13.30
2021,05,04,10,00,13.30
2021,05,04,10,01,13.30
2021,05,04,10,02,13.30
2021,05,04,10,03,13.20
2021,05,04,10,04,13.20
2021,05,04,10,05,13.20
2021,05,04,10,06,13.20
2021,05,04,10,07,13.20
2021,05,04,10,08,13.20
2021,05,04,10,09,13.30
2021,05,04,10,10,13.40
2021,05,04,10,11,13.60
2021,05,04,10,12,13.80
2021,05,04,10,13,13.80
2021,05,04,10,14,13.80
2021,05,04,10,15,13.90
2021,05,04,10,16,13.90
2021,05,04,10,17,13.90
2021,05,04,10,18,14.00
2021,05,04,10,19,14.00
2021,05,04,10,20,14.10
2021,05,04,10,21,14.10
2021,05,04,10,22,14.10
2021,05,04,10,23,14.00
2021,05,04,10,24,14.00
2021,05,04,10,25,13.90
2021,05,04,10,26,13.90
2021,05,04,10,27,13.80
2021,05,04,10,28,13.70
2021,05,04,10,29,13.60
2021,05,04,10,30,13.60
2021,05,04,10,31,13.50
2021,05,04,10,32,13.60
2021,05,04,10,33,13.60
2021,05,04,10,34,13.70
2021,05,04,10,35,13.70
2021,05,04,10,36,13.80
2021,05,04,10,37,13.90
2021,05,04,10,38,14.00
2021,05,04,10,39,14.00
2021,05,04,10,40,13.90
2021,05,04,10,41,13.80
2021,05,04,10,42,13.80
2021,05,04,10,43,13.80
2021,05,04,10,44,13.90
2021,05,04,10,45,13.90
2021,05,04,10,46,13.90
2021,05,04,10,47,13.90
2021,05,04,10,48,13.90
2021,05,04,10,49,14.00
2021,05,04,10,50,14.00
2021,05,04,10,51,14.10
2021,05,04,10,52,14.20
2021,05,04,10,53,14.20
2021,05,04,10,54,14.30
2021,05,04,10,55,14.40
2021,05,04,10,56,14.40
2021,05,04,10,57,14.40
2021,05,04,10,58,14.40
2021,05,04,10,59,14.40
2021,05,04,11,00,14.40
2021,05,04,11,01,14.50
2021,05,04,11,02,14.50
2021,05,04,11,03,14.50
2021,05,04,11,04,14.50
2021,05,04,11,05,14.50
2021,05,04,11,06,14.60
2021,05,04,11,07,14.70
2021,05,04,11,08,14.80
2021,05,04,11,09,14.90
2021,05,04,11,10,14.90
2021,05,04,11,11,14.90
2021,05,04,11,12,14.80
2021,05,04,11,13,14.80
2021,05,04,11,14,14.80
2021,05,04,11,15,14.70
2021,05,04,11,16,14.60
2021,05,04,11,17,14.50
2021,05,04,11,18,14.50
2021,05,04,11,19,14.40
2021,05,04,11,20,14.30
2021,05,04,11,21,14.40
2021,05,04,11,22,14.50
2021,05,04,11,23,14.60
2021,05,04,11,24,14.70
2021,05,04,11,25,14.70
2021,05,04,11,26,14.60
2021,05,04,11,27,14.60
2021,05,04,11,28,14.50
2021,05,04,11,29,14.50
2021,05,04,11,30,14.60
2021,05,04,11,31,14.50
2021,05,04,11,32,14.50
2021,05,04,11,33,14.50
2021,05,04,11,34,14.60
2021,05,04,11,35,14.60
2021,05,04,11,36,14.50
2021,05,04,11,37,14.50
2021,05,04,11,38,14.50
2021,05,04,11,39,14.40
2021,05,04,11,40,14.30
2021,05,04,11,41,14.30
2021,05,04,11,42,14.30
2021,05,04,11,43,14.30
2021,05,04,11,44,14.30
2021,05,04,11,45,14.30
2021,05,04,11,46,14.40
2021,05,04,11,47,14.40
2021,05,04,11,48,14.30
2021,05,04,11,49,14.30
2021,05,04,11,50,14.30
2021,05,04,11,51,14.30
2021,05,04,11,52,14.40
2021,05,04,11,53,14.40
2021,05,04,11,54,14.40
2021,05,04,11,55,14.30
2021,05,04,11,56,14.20
2021,05,04,11,57,14.10
2021,05,04,11,58,14.10
2021,05,04,11,59,14.10
2021,05,04,12,00,14.10
2021,05,04,12,01,14.10
2021,05,04,12,02,14.00
2021,05,04,12,03,14.10
2021,05,04,12,04,14.10
2021,05,04,12,05,14.10
2021,05,04,12,06,14.10
2021,05,04,12,07,14.10
2021,05,04,12,08,14.10
2021,05,04,12,09,14.10
2021,05,04,12,10,14.10
2021,05,04,12,11,14.10
2021,05,04,12,12,14.20
2021,05,04,12,13,14.20
2021,05,04,12,14,14.30
2021,05,04,12,15,14.30
2021,05,04,12,16,14.40
2021,05,04,12,17,14.50
2021,05,04,12,18,14.60
2021,05,04,12,19,14.60
2021,05,04,12,20,14.60
2021,05,04,12,21,14.60
2021,05,04,12,22,14.50
2021,05,04,12,23,14.50
2021,05,04,12,24,14.40
2021,05,04,12,25,14.40
2021,05,04,12,26,14.30
2021,05,04,12,27,14.20
2021,05,04,12,28,14.10
2021,05,04,12,29,14.10
2021,05,04,12,30,14.10
2021,05,04,12,31,14.10
2021,05,04,12,32,14.10
2021,05,04,12,33,14.10
2021,05,04,12,34,14.20
2021,05,04,12,35,14.20
2021,05,04,12,36,14.20
2021,05,04,12,37,14.20
2021,05,04,12,38,14.20
2021,05,04,12,39,14.10
2021,05,04,12,40,14.10
2021,05,04,12,41,14.00
2021,05,04,12,42,14.00
2021,05,04,12,43,14.10
2021,05,04,12,44,14.20
2021,05,04,12,45,14.30
2021,05,04,12,46,14.30
2021,05,04,12,47,14.20
2021,05,04,12,48,14.20
2021,05,04,12,49,14.30
2021,05,04,12,50,14.30
2021,05,04,12,51,14.40
2021,05,04,12,52,14.50
2021,05,04,12,53,14.50
2021,05,04,12,54,14.50
2021,05,04,12,55,14.40
2021,05,04,12,56,14.40
2021,05,04,12,57,14.40
2021,05,04,12,58,14.40
2021,05,04,12,59,14.60
2021,05,04,13,00,14.60
2021,05,04,13,01,14.70
2021,05,04,13,02,14.70
2021,05,04,13,03,14.70
2021,05,04,13,04,14.70
2021,05,04,13,05,14.70
2021,05,04,13,06,14.70
2021,05,04,13,07,14.80
2021,05,04,13,08,15.00
2021,05,04,13,09,15.00
2021,05,04,13,10,15.10
2021,05,04,13,11,15.00
2021,05,04,13,12,15.00
2021,05,04,13,13,14.90
2021,05,04,13,14,14.80
2021,05,04,13,15,14.90
2021,05,04,13,16,15.00
2021,05,04,13,17,15.10
2021,05,04,13,18,15.20
2021,05,04,13,19,15.20
2021,05,04,13,20,15.20
2021,05,04,13,21,15.30
2021,05,04,13,22,15.40
2021,05,04,13,23,15.40
2021,05,04,13,24,15.40
2021,05,04,13,25,15.40
2021,05,04,13,26,15.40
2021,05,04,13,27,15.50
2021,05,04,13,28,15.50
2021,05,04,13,29,15.40
2021,05,04,13,30,15.40
2021,05,04,13,31,15.40
2021,05,04,13,32,15.40
2021,05,04,13,33,15.30
2021,05,04,13,34,15.30
2021,05,04,13,35,15.30
2021,05,04,13,36,15.40
2021,05,04,13,37,15.30
2021,05,04,13,38,15.30
2021,05,04,13,39,15.30
2021,05,04,13,40,15.20
2021,05,04,13,41,15.10
2021,05,04,13,42,15.10
2021,05,04,13,43,15.00
2021,05,04,13,44,15.00
2021,05,04,13,45,15.10
2021,05,04,13,46,15.10
2021,05,04,13,47,15.10
2021,05,04,13,48,15.00
2021,05,04,13,49,15.00
2021,05,04,13,50,15.00
2021,05,04,13,51,15.00
2021,05,04,13,52,15.10
2021,05,04,13,53,15.10
2021,05,04,13,54,15.20
2021,05,04,13,55,15.20
2021,05,04,13,56,15.30
2021,05,04,13,57,15.30
2021,05,04,13,58,15.30
2021,05,04,13,59,15.20
2021,05,04,14,00,15.10
2021,05,04,14,01,14.90
2021,05,04,14,02,14.80
2021,05,04,14,03,14.60
2021,05,04,14,04,14.60
2021,05,04,14,05,14.50
2021,05,04,14,06,14.50
2021,05,04,14,07,14.50
2021,05,04,14,08,14.50
2021,05,04,14,09,14.60
2021,05,04,14,10,14.70
2021,05,04,14,11,14.70
2021,05,04,14,12,14.80
2021,05,04,14,13,14.80
2021,05,04,14,14,14.80
2021,05,04,14,15,14.80
2021,05,04,14,16,14.80
2021,05,04,14,17,14.90
2021,05,04,14,18,14.80
2021,05,04,14,19,14.90
2021,05,04,14,20,14.90
2021,05,04,14,21,14.90
2021,05,04,14,22,14.90
2021,05,04,14,23,14.90
2021,05,04,14,24,14.90
2021,05,04,14,25,14.90
2021,05,04,14,26,14.90
2021,05,04,14,27,14.80
2021,05,04,14,28,14.70
2021,05,04,14,29,14.60
2021,05,04,14,30,14.50
2021,05,04,14,31,14.50
2021,05,04,14,32,14.40
2021,05,04,14,33,14.40
2021,05,04,14,34,14.30
2021,05,04,14,35,14.40
2021,05,04,14,36,14.40
2021,05,04,14,37,14.40
2021,05,04,14,38,14.50
2021,05,04,14,39,14.50
2021,05,04,14,40,14.60
2021,05,04,14,41,14.60
2021,05,04,14,42,14.70
2021,05,04,14,43,14.80
2021,05,04,14,44,14.90
2021,05,04,14,45,15.00
2021,05,04,14,46,15.10
2021,05,04,14,47,15.20
2021,05,04,14,48,15.10
2021,05,04,14,49,15.10
2021,05,04,14,50,15.20
2021,05,04,14,51,15.20
2021,05,04,14,52,15.20
2021,05,04,14,53,15.20
2021,05,04,14,54,15.20
2021,05,04,14,55,15.20
2021,05,04,14,56,15.20
2021,05,04,14,57,15.20
2021,05,04,14,58,15.20
2021,05,04,14,59,15.10
2021,05,04,15,00,15.00
2021,05,04,15,01,14.90
2021,05,04,15,02,14.80
2021,05,04,15,03,14.90
2021,05,04,15,04,14.90
2021,05,04,15,05,15.00
2021,05,04,15,06,15.10
2021,05,04,15,07,15.10
2021,05,04,15,08,15.10
2021,05,04,15,09,15.20
2021,05,04,15,10,15.10
2021,05,04,15,11,15.00
2021,05,04,15,12,15.00
2021,05,04,15,13,15.00
2021,05,04,15,14,15.00
2021,05,04,15,15,15.10
2021,05,04,15,16,15.20
2021,05,04,15,17,15.20
2021,05,04,15,18,15.30
2021,05,04,15,19,15.30
2021,05,04,15,20,15.40
2021,05,04,15,21,15.50
2021,05,04,15,22,15.50
2021,05,04,15,23,15.60
2021,05,04,15,24,15.70
2021,05,04,15,25,15.70
2021,05,04,15,26,15.70
2021,05,04,15,27,15.70
2021,05,04,15,28,15.60
2021,05,04,15,29,15.50
2021,05,04,15,30,15.50
2021,05,04,15,31,15.50
2021,05,04,15,32,15.60
2021,05,04,15,33,15.60
2021,05,04,15,34,15.70
2021,05,04,15,35,15.70
2021,05,04,15,36,15.70
2021,05,04,15,37,15.60
2021,05,04,15,38,15.50
2021,05,04,15,39,15.40
2021,05,04,15,40,15.40
2021,05,04,15,41,15.50
2021,05,04,15,42,15.60
2021,05,04,15,43,15.70
2021,05,04,15,44,15.70
2021,05,04,15,45,15.70
2021,05,04,15,46,15.80
2021,05,04,15,47,15.80
2021,05,04,15,48,15.90
2021,05,04,15,49,15.90
2021,05,04,15,50,15.90
2021,05,04,15,51,15.80
2021,05,04,15,52,15.80
2021,05,04,15,53,15.70
2021,05,04,15,54,15.70
2021,05,04,15,55,15.60
2021,05,04,15,56,15.60
2021,05,04,15,57,15.50
2021,05,04,15,58,15.50
2021,05,04,15,59,15.50
2021,05,04,16,00,15.60
2021,05,04,16,01,15.50
2021,05,04,16,02,15.50
2021,05,04,16,03,15.40
2021,05,04,16,04,15.30
2021,05,04,16,05,15.30
2021,05,04,16,06,15.30
2021,05,04,16,07,15.30
2021,05,04,16,08,15.30
2021,05,04,16,09,15.30
2021,05,04,16,10,15.30
2021,05,04,16,11,15.30
2021,05,04,16,12,15.40
2021,05,04,16,13,15.40
2021,05,04,16,14,15.40
2021,05,04,16,15,15.40
2021,05,04,16,16,15.30
2021,05,04,16,17,15.30
2021,05,04,16,18,15.30
2021,05,04,16,19,15.40
2021,05,04,16,20,15.40
2021,05,04,16,21,15.30
2021,05,04,16,22,15.30
2021,05,04,16,23,15.30
2021,05,04,16,24,15.30
2021,05,04,16,25,15.40
2021,05,04,16,26,15.50
2021,05,04,16,27,15.60
2021,05,04,16,28,15.60
2021,05,04,16,29,15.60
2021,05,04,16,30,15.60
2021,05,04,16,31,15.60
2021,05,04,16,32,15.60
2021,05,04,16,33,15.60
2021,05,04,16,34,15.60
2021,05,04,16,35,15.50
2021,05,04,16,36,15.50
2021,05,04,16,37,15.50
2021,05,04,16,38,15.40
2021,05,04,16,39,15.40
2021,05,04,16,40,15.30
2021,05,04,16,41,15.30
2021,05,04,16,42,15.30
2021,05,04,16,43,15.40
2021,05,04,16,44,15.30
2021,05,04,16,45,15.30
2021,05,04,16,46,15.30
2021,05,04,16,47,15.40
2021,05,04,16,48,15.40
2021,05,04,16,49,15.40
2021,05,04,16,50,15.40
2021,05,04,16,51,15.30
2021,05,04,16,52,15.30
2021,05,04,16,53,15.30
2021,05,04,16,54,15.40
2021,05,04,16,55,15.30
2021,05,04,16,56,15.30
2021,05,04,16,57,15.30
2021,05,04,16,58,15.20
2021,05,04,16,59,15.10
2021,05,04,17,00,15.10
2021,05,04,17,01,15.10
2021,05,04,17,02,15.10
2021,05,04,17,03,15.10
2021,05,04,17,04,15.20
2021,05,04,17,05,15.20
2021,05,04,17,06,15.20
2021,05,04,17,07,15.20
2021,05,04,17,08,15.20
2021,05,04,17,09,15.20
2021,05,04,17,10,15.20
2021,05,04,17,11,15.20
2021,05,04,17,12,15.10
2021,05,04,17,13,15.10
2021,05,04,17,14,15.10
2021,05,04,17,15,15.20
2021,05,04,17,16,15.20
2021,05,04,17,17,15.30
2021,05,04,17,18,15.30
2021,05,04,17,19,15.30
2021,05,04,17,20,15.30
2021,05,04,17,21,15.30
2021,05,04,17,22,15.30
2021,05,04,17,23,15.20
2021,05,04,17,24,15.20
2021,05,04,17,25,15.20
2021,05,04,17,26,15.20
2021,05,04,17,27,15.20
2021,05,04,17,28,15.10
2021,05,04,17,29,15.10
2021,05,04,17,30,15.10
2021,05,04,17,31,15.10
2021,05,04,17,32,15.10
2021,05,04,17,33,15.10
2021,05,04,17,34,15.20
2021,05,04,17,35,15.20
2021,05,04,17,36,15.20
2021,05,04,17,37,15.10
2021,05,04,17,38,15.10
2021,05,04,17,39,15.10
2021,05,04,17,40,15.10